Time,TemperatureF,DewpointF,PressureIn,WindDirection,WindDirectionDegrees,WindSpeedMPH,WindSpeedGustMPH,Humidity,HourlyPrecipIn,Conditions,Clouds,dailyrainin,SoftwareType,DateUTC
2013-09-07 00:02:00,74.5,70.7,29.88,SE,135,4.7,-999.0,88,-99.99,,,0.00,Acu-Link.com,2013-09-07 05:02:00,
2013-09-07 00:17:00,73.8,70.7,29.88,South,180,4.7,-999.0,90,-99.99,,,0.00,Acu-Link.com,2013-09-07 05:17:00,
2013-09-07 00:32:00,73.2,70.7,29.88,South,180,4.7,-999.0,92,-99.99,,,0.00,Acu-Link.com,2013-09-07 05:32:00,
2013-09-07 00:47:00,73.0,70.9,29.88,SSW,202,5.3,-999.0,93,-99.99,,,0.00,Acu-Link.com,2013-09-07 05:47:00,
2013-09-07 01:03:00,72.7,70.9,29.89,South,180,4.2,-999.0,94,-99.99,,,0.00,Acu-Link.com,2013-09-07 06:03:00,
2013-09-07 01:18:00,72.5,70.7,29.89,SSW,202,5.3,-999.0,94,-99.99,,,0.00,Acu-Link.com,2013-09-07 06:18:00,
2013-09-07 01:33:00,72.1,70.9,29.88,South,180,4.7,-999.0,96,-99.99,,,0.00,Acu-Link.com,2013-09-07 06:33:00,
2013-09-07 01:48:00,72.1,70.9,29.88,SW,225,3.2,-999.0,96,-99.99,,,0.00,Acu-Link.com,2013-09-07 06:48:00,
2013-09-07 02:04:00,71.8,70.9,29.88,SE,135,4.2,-999.0,97,-99.99,,,0.00,Acu-Link.com,2013-09-07 07:04:00,
2013-09-07 02:19:00,71.6,71.0,29.88,SSE,157,3.7,-999.0,98,-99.99,,,0.00,Acu-Link.com,2013-09-07 07:19:00,
2013-09-07 02:34:00,71.1,70.5,29.89,West,270,2.7,-999.0,98,-99.99,,,0.00,Acu-Link.com,2013-09-07 07:34:00,
2013-09-07 02:50:00,71.1,70.5,29.88,West,270,2.7,-999.0,98,-99.99,,,0.00,Acu-Link.com,2013-09-07 07:50:00,
2013-09-07 03:05:00,70.9,70.3,29.88,SSW,202,3.2,-999.0,98,-99.99,,,0.00,Acu-Link.com,2013-09-07 08:05:00,
2013-09-07 03:20:00,70.7,70.1,29.88,SSW,202,4.7,-999.0,98,-99.99,,,0.00,Acu-Link.com,2013-09-07 08:20:00,
2013-09-07 03:35:00,70.5,69.9,29.88,SSW,202,2.7,-999.0,98,-99.99,,,0.00,Acu-Link.com,2013-09-07 08:35:00,
2013-09-07 03:51:00,70.3,69.7,29.88,South,180,3.7,-999.0,98,-99.99,,,0.00,Acu-Link.com,2013-09-07 08:51:00,
2013-09-07 04:06:00,69.8,69.2,29.88,SSE,157,2.7,-999.0,98,-99.99,,,0.00,Acu-Link.com,2013-09-07 09:06:00,
2013-09-07 04:21:00,69.3,68.7,29.88,South,180,2.2,-999.0,98,-99.99,,,0.00,Acu-Link.com,2013-09-07 09:21:00,
2013-09-07 04:36:00,68.5,67.9,29.89,SE,135,0.0,-999.0,98,-99.99,,,0.00,Acu-Link.com,2013-09-07 09:36:00,
2013-09-07 04:51:00,68.2,67.6,29.88,SW,225,2.2,-999.0,98,-99.99,,,0.00,Acu-Link.com,2013-09-07 09:51:00,
2013-09-07 05:06:00,68.0,67.4,29.88,South,180,2.7,-999.0,98,-99.99,,,0.00,Acu-Link.com,2013-09-07 10:06:00,
2013-09-07 05:22:00,67.8,67.2,29.87,SSW,202,3.7,-999.0,98,-99.99,,,0.00,Acu-Link.com,2013-09-07 10:22:00,
2013-09-07 05:37:00,68.0,67.4,29.88,South,180,1.7,-999.0,98,-99.99,,,0.00,Acu-Link.com,2013-09-07 10:37:00,
2013-09-07 05:52:00,68.0,67.4,29.89,WSW,247,1.7,-999.0,98,-99.99,,,0.00,Acu-Link.com,2013-09-07 10:52:00,
2013-09-07 06:07:00,67.5,66.9,29.89,NNW,337,0.0,-999.0,98,-99.99,,,0.00,Acu-Link.com,2013-09-07 11:07:00,
2013-09-07 06:23:00,66.7,66.1,29.89,North,0,0.0,-999.0,98,-99.99,,,0.00,Acu-Link.com,2013-09-07 11:23:00,
2013-09-07 06:38:00,66.4,65.8,29.90,NNE,22,2.2,-999.0,98,-99.99,,,0.00,Acu-Link.com,2013-09-07 11:38:00,
2013-09-07 06:53:00,66.7,66.1,29.90,NE,45,2.7,-999.0,98,-99.99,,,0.00,Acu-Link.com,2013-09-07 11:53:00,
2013-09-07 07:09:00,67.3,66.7,29.90,NNE,22,1.1,-999.0,98,-99.99,,,0.00,Acu-Link.com,2013-09-07 12:09:00,
2013-09-07 07:24:00,68.2,67.6,29.91,North,0,2.2,-999.0,98,-99.99,,,0.00,Acu-Link.com,2013-09-07 12:24:00,
2013-09-07 07:39:00,69.4,68.8,29.91,NNE,22,2.7,-999.0,98,-99.99,,,0.00,Acu-Link.com,2013-09-07 12:39:00,
2013-09-07 07:54:00,71.2,70.6,29.91,NNE,22,3.7,-999.0,98,-99.99,,,0.00,Acu-Link.com,2013-09-07 12:54:00,
2013-09-07 08:09:00,72.7,72.1,29.91,NW,315,4.2,-999.0,98,-99.99,,,0.00,Acu-Link.com,2013-09-07 13:09:00,
2013-09-07 08:25:00,73.2,72.6,29.92,North,0,4.7,-999.0,98,-99.99,,,0.00,Acu-Link.com,2013-09-07 13:25:00,
2013-09-07 08:40:00,74.7,73.8,29.91,North,0,6.8,-999.0,97,-99.99,,,0.00,Acu-Link.com,2013-09-07 13:40:00,
2013-09-07 08:56:00,74.8,73.9,29.91,NNW,337,5.3,-999.0,97,-99.99,,,0.00,Acu-Link.com,2013-09-07 13:56:00,
2013-09-07 09:11:00,76.3,74.4,29.92,NW,315,4.7,-999.0,94,-99.99,,,0.00,Acu-Link.com,2013-09-07 14:11:00,
2013-09-07 09:26:00,77.7,74.5,29.93,NNE,22,7.8,-999.0,90,-99.99,,,0.00,Acu-Link.com,2013-09-07 14:26:00,
2013-09-07 09:41:00,79.0,74.8,29.93,NNE,22,8.3,-999.0,87,-99.99,,,0.00,Acu-Link.com,2013-09-07 14:41:00,
2013-09-07 09:56:00,81.0,75.7,29.93,NNE,22,7.3,-999.0,84,-99.99,,,0.00,Acu-Link.com,2013-09-07 14:56:00,
2013-09-07 10:11:00,82.2,76.1,29.93,North,0,4.2,-999.0,82,-99.99,,,0.00,Acu-Link.com,2013-09-07 15:11:00,
2013-09-07 10:26:00,82.4,75.6,29.94,NE,45,8.9,-999.0,80,-99.99,,,0.00,Acu-Link.com,2013-09-07 15:26:00,
2013-09-07 10:41:00,82.2,75.0,29.93,NNE,22,8.3,-999.0,79,-99.99,,,0.00,Acu-Link.com,2013-09-07 15:41:00,
2013-09-07 10:57:00,84.4,76.4,29.94,NE,45,5.8,-999.0,77,-99.99,,,0.00,Acu-Link.com,2013-09-07 15:57:00,
2013-09-07 11:12:00,84.2,75.8,29.94,North,0,7.3,-999.0,76,-99.99,,,0.00,Acu-Link.com,2013-09-07 16:12:00,
2013-09-07 11:27:00,85.3,76.5,29.94,East,90,7.8,-999.0,75,-99.99,,,0.00,Acu-Link.com,2013-09-07 16:27:00,
2013-09-07 11:42:00,85.8,76.1,29.94,NNE,22,9.4,-999.0,73,-99.99,,,0.00,Acu-Link.com,2013-09-07 16:42:00,
2013-09-07 11:58:00,86.4,77.1,29.95,ENE,67,5.3,-999.0,74,-99.99,,,0.00,Acu-Link.com,2013-09-07 16:58:00,
2013-09-07 12:13:00,86.5,76.4,29.94,NNE,22,10.9,-999.0,72,-99.99,,,0.00,Acu-Link.com,2013-09-07 17:13:00,
2013-09-07 12:28:00,87.1,76.5,29.94,East,90,10.9,-999.0,71,-99.99,,,0.00,Acu-Link.com,2013-09-07 17:28:00,
2013-09-07 12:43:00,87.3,76.7,29.93,NNE,22,7.8,-999.0,71,-99.99,,,0.00,Acu-Link.com,2013-09-07 17:43:00,
2013-09-07 12:58:00,87.8,77.2,29.93,ENE,67,4.7,-999.0,71,-99.99,,,0.00,Acu-Link.com,2013-09-07 17:58:00,
2013-09-07 13:13:00,88.0,75.6,29.93,NE,45,8.9,-999.0,67,-99.99,,,0.00,Acu-Link.com,2013-09-07 18:13:00,
2013-09-07 13:28:00,88.5,76.6,29.93,NNE,22,6.3,-999.0,68,-99.99,,,0.00,Acu-Link.com,2013-09-07 18:28:00,
2013-09-07 13:43:00,89.6,76.7,29.93,ENE,67,6.3,-999.0,66,-99.99,,,0.00,Acu-Link.com,2013-09-07 18:43:00,
2013-09-07 13:58:00,89.1,75.8,29.93,NE,45,4.7,-999.0,65,-99.99,,,0.00,Acu-Link.com,2013-09-07 18:58:00,
2013-09-07 14:13:00,90.1,75.3,29.93,ENE,67,8.3,-999.0,62,-99.99,,,0.00,Acu-Link.com,2013-09-07 19:13:00,
2013-09-07 14:28:00,90.7,75.4,29.93,East,90,8.9,-999.0,61,-99.99,,,0.00,Acu-Link.com,2013-09-07 19:28:00,
2013-09-07 14:43:00,90.1,75.3,29.93,NNE,22,9.9,-999.0,62,-99.99,,,0.00,Acu-Link.com,2013-09-07 19:43:00,
2013-09-07 14:59:00,90.5,75.2,29.92,East,90,3.7,-999.0,61,-99.99,,,0.00,Acu-Link.com,2013-09-07 19:59:00,
2013-09-07 15:14:00,91.8,74.9,29.92,NE,45,5.8,-999.0,58,-99.99,,,0.00,Acu-Link.com,2013-09-07 20:14:00,
2013-09-07 15:29:00,92.1,75.2,29.92,NNE,22,6.3,-999.0,58,-99.99,,,0.00,Acu-Link.com,2013-09-07 20:29:00,
2013-09-07 15:44:00,91.8,74.4,29.92,East,90,5.8,-999.0,57,-99.99,,,0.00,Acu-Link.com,2013-09-07 20:44:00,
2013-09-07 15:59:00,89.1,73.4,29.92,NNE,22,6.8,-999.0,60,-99.99,,,0.00,Acu-Link.com,2013-09-07 20:59:00,
2013-09-07 16:14:00,88.7,74.5,29.93,NE,45,6.3,-999.0,63,-99.99,,,0.00,Acu-Link.com,2013-09-07 21:14:00,
2013-09-07 16:30:00,89.1,73.4,29.92,NE,45,5.8,-999.0,60,-99.99,,,0.00,Acu-Link.com,2013-09-07 21:30:00,
2013-09-07 16:45:00,89.8,73.5,29.93,NE,45,6.3,-999.0,59,-99.99,,,0.00,Acu-Link.com,2013-09-07 21:45:00,
2013-09-07 17:00:00,89.8,74.0,29.92,East,90,3.7,-999.0,60,-99.99,,,0.00,Acu-Link.com,2013-09-07 22:00:00,
2013-09-07 17:15:00,89.1,73.9,29.93,ENE,67,5.3,-999.0,61,-99.99,,,0.00,Acu-Link.com,2013-09-07 22:15:00,
2013-09-07 17:30:00,89.8,75.0,29.94,NE,45,7.8,-999.0,62,-99.99,,,0.00,Acu-Link.com,2013-09-07 22:30:00,
2013-09-07 17:45:00,88.2,74.0,29.94,NNE,22,2.7,-999.0,63,-99.99,,,0.00,Acu-Link.com,2013-09-07 22:45:00,
2013-09-07 18:00:00,88.9,74.2,29.95,NE,45,5.3,-999.0,62,-99.99,,,0.00,Acu-Link.com,2013-09-07 23:00:00,
2013-09-07 18:16:00,89.4,74.6,29.95,NE,45,4.7,-999.0,62,-99.99,,,0.00,Acu-Link.com,2013-09-07 23:16:00,
2013-09-07 18:31:00,89.6,75.3,29.95,NNE,22,4.2,-999.0,63,-99.99,,,0.00,Acu-Link.com,2013-09-07 23:31:00,
2013-09-07 18:46:00,88.0,74.3,29.95,NNE,22,5.3,-999.0,64,-99.99,,,0.00,Acu-Link.com,2013-09-07 23:46:00,
2013-09-07 19:01:00,86.5,73.8,29.95,NNE,22,2.7,-999.0,66,-99.99,,,0.00,Acu-Link.com,2013-09-08 00:01:00,
2013-09-07 19:16:00,84.9,74.4,29.96,NE,45,2.7,-999.0,71,-99.99,,,0.00,Acu-Link.com,2013-09-08 00:16:00,
2013-09-07 19:31:00,83.7,74.1,29.96,NNE,22,2.2,-999.0,73,-99.99,,,0.00,Acu-Link.com,2013-09-08 00:31:00,
2013-09-07 19:47:00,82.0,73.7,29.97,NNE,22,1.7,-999.0,76,-99.99,,,0.00,Acu-Link.com,2013-09-08 00:47:00,
2013-09-07 20:02:00,80.6,73.5,29.97,NNE,22,2.2,-999.0,79,-99.99,,,0.00,Acu-Link.com,2013-09-08 01:02:00,
2013-09-07 20:17:00,79.0,73.0,29.97,NNE,22,3.2,-999.0,82,-99.99,,,0.00,Acu-Link.com,2013-09-08 01:17:00,
2013-09-07 20:33:00,79.3,72.9,29.98,NE,45,7.3,-999.0,81,-99.99,,,0.00,Acu-Link.com,2013-09-08 01:33:00,
2013-09-07 20:48:00,79.5,72.4,29.98,NE,45,4.2,-999.0,79,-99.99,,,0.00,Acu-Link.com,2013-09-08 01:48:00,
2013-09-07 21:03:00,79.0,71.9,29.98,NNE,22,5.3,-999.0,79,-99.99,,,0.00,Acu-Link.com,2013-09-08 02:03:00,
2013-09-07 21:18:00,78.6,71.1,29.99,NNE,22,5.3,-999.0,78,-99.99,,,0.00,Acu-Link.com,2013-09-08 02:18:00,
2013-09-07 21:33:00,78.1,71.4,30.00,NE,45,4.7,-999.0,80,-99.99,,,0.00,Acu-Link.com,2013-09-08 02:33:00,
2013-09-07 21:48:00,77.2,70.9,30.00,East,90,6.3,-999.0,81,-99.99,,,0.00,Acu-Link.com,2013-09-08 02:48:00,
2013-09-07 22:03:00,76.5,70.9,30.01,NE,45,7.8,-999.0,83,-99.99,,,0.00,Acu-Link.com,2013-09-08 03:03:00,
2013-09-07 22:19:00,75.4,70.6,30.01,NE,45,6.8,-999.0,85,-99.99,,,0.00,Acu-Link.com,2013-09-08 03:19:00,
2013-09-07 22:34:00,74.7,70.2,30.02,NNE,22,8.9,-999.0,86,-99.99,,,0.00,Acu-Link.com,2013-09-08 03:34:00,
2013-09-07 22:49:00,73.6,69.5,30.03,NE,45,6.8,-999.0,87,-99.99,,,0.00,Acu-Link.com,2013-09-08 03:49:00,
2013-09-07 23:04:00,73.4,69.3,30.02,NNE,22,6.8,-999.0,87,-99.99,,,0.00,Acu-Link.com,2013-09-08 04:04:00,
2013-09-07 23:19:00,72.5,68.1,30.03,NE,45,9.9,-999.0,86,-99.99,,,0.00,Acu-Link.com,2013-09-08 04:19:00,
2013-09-07 23:34:00,71.8,67.7,30.03,NE,45,6.8,-999.0,87,-99.99,,,0.00,Acu-Link.com,2013-09-08 04:34:00,
2013-09-07 23:49:00,71.1,66.0,30.04,NE,45,8.3,-999.0,84,-99.99,,,0.00,Acu-Link.com,2013-09-08 04:49:00,